Location: Unspecified
(49.2170°N, 0.0000°E)
Time: 17:37:00
(UTC+00:00)

Envisat - Pass Details

Date: 02 December 2020
Orbit: 764 x 766 km, 98.1° (Epoch: 20 January)

Event Time Altitude Azimuth Distance (km) Brightness Sun altitude
Rises 06:19:28 0° 12° (NNE) 3,247 6.2 -11.8°
Reaches altitude 10° 06:21:47 10° 10° (N) 2,316 5.4 -11.5°
Maximum altitude 06:26:52 71° 287° (WNW) 811 2.9 -10.7°
Drops below altitude 10° 06:31:54 10° 205° (SSW) 2,298 5.5 -9.9°
Sets 06:34:12 0° 203° (SSW) 3,219 6.2 -9.6°
